| time (UTC) | temp F | wind direction | speed MPH | gust MPH | rain 1hr in | rain 24hr in | rain mn in | humidity % | barometer mb |
| 20260506194030 | 50 | 5 | 3.0 | 3.0 | 0.00 | 0.00 | 0.13 | 76 | 655.7 |
| 20260506193020 | 50 | 15 | 3.0 | 3.0 | 0.00 | 0.00 | 0.13 | 76 | 655.8 |
| 20260506192006 | 50 | 26 | 1.0 | 7.0 | 0.00 | 0.00 | 0.13 | 75 | 655.9 |
| 20260506191059 | 50 | 24 | 4.0 | 8.0 | 0.00 | 0.00 | 0.13 | 73 | 656.1 |
| 20260506190052 | 51 | 10 | 2.0 | 7.0 | 0.00 | 0.00 | 0.13 | 72 | 656.2 |
| 20260506185045 | 51 | 26 | 4.0 | 7.0 | 0.00 | 0.00 | 0.13 | 70 | 656.3 |
| 20260506184037 | 51 | 23 | 4.0 | 4.0 | 0.00 | 0.00 | 0.13 | 69 | 656.5 |
| 20260506183030 | 51 | 5 | 4.0 | 7.0 | 0.00 | 0.00 | 0.13 | 69 | 656.7 |
| 20260506182012 | 52 | 22 | 4.0 | 7.0 | 0.00 | 0.00 | 0.13 | 66 | 657.0 |
| 20260506181004 | 52 | 34 | 4.0 | 7.0 | 0.00 | 0.00 | 0.13 | 66 | 657.1 |
| 20260506180058 | 52 | 30 | 4.0 | 6.0 | 0.00 | 0.00 | 0.13 | 65 | 657.2 |
| 20260506175051 | 53 | 19 | 2.0 | 9.0 | 0.00 | 0.00 | 0.13 | 65 | 657.4 |
| 20260506174044 | 53 | 29 | 4.0 | 6.0 | 0.00 | 0.00 | 0.13 | 65 | 657.6 |
| 20260506173036 | 54 | 16 | 3.0 | 10.0 | 0.00 | 0.00 | 0.13 | 64 | 658.1 |
| 20260506172029 | 55 | 347 | 5.0 | 11.0 | 0.00 | 0.00 | 0.13 | 62 | 658.5 |
| 20260506171018 | 54 | 5 | 6.0 | 10.0 | 0.00 | 0.00 | 0.13 | 59 | 658.4 |
| 20260506170008 | 54 | 3 | 3.0 | 10.0 | 0.00 | 0.00 | 0.13 | 59 | 658.5 |
| 20260506165100 | 54 | 23 | 2.0 | 7.0 | 0.00 | 0.00 | 0.13 | 59 | 658.3 |
| 20260506164053 | 55 | 0 | 4.0 | 13.0 | 0.00 | 0.00 | 0.13 | 59 | 658.5 |
| 20260506163046 | 55 | 30 | 4.0 | 9.0 | 0.00 | 0.00 | 0.13 | 60 | 658.6 |
| 20260506162039 | 55 | 15 | 5.0 | 9.0 | 0.00 | 0.00 | 0.13 | 60 | 658.6 |
| 20260506161032 | 55 | 10 | 2.0 | 9.0 | 0.00 | 0.00 | 0.13 | 61 | 1009.5 |
| 20260506160025 | 56 | 11 | 7.0 | 9.0 | 0.00 | 0.00 | 0.13 | 60 | 1009.6 |
| 20260506155011 | 56 | 2 | 3.0 | 8.0 | 0.00 | 0.00 | 0.13 | 62 | 1009.6 |
| 20260506154004 | 57 | 355 | 4.0 | 10.0 | 0.00 | 0.00 | 0.13 | 60 | 1009.5 |
| 20260506153058 | 57 | 353 | 5.0 | 10.0 | 0.00 | 0.00 | 0.13 | 59 | 1009.4 |
| 20260506152050 | 57 | 1 | 4.0 | 6.0 | 0.00 | 0.00 | 0.13 | 61 | 1009.4 |
| 20260506151044 | 57 | 8 | 3.0 | 9.0 | 0.00 | 0.00 | 0.13 | 59 | 1009.4 |
| 20260506150036 | 58 | 3 | 3.0 | 9.0 | 0.00 | 0.00 | 0.13 | 57 | 1009.3 |
| 20260506145029 | 57 | 13 | 2.0 | 7.0 | 0.00 | 0.00 | 0.13 | 59 | 1009.2 |
| 20260506144021 | 57 | 9 | 1.0 | 6.0 | 0.00 | 0.00 | 0.13 | 57 | 1009.3 |
| 20260506143009 | 58 | 5 | 4.0 | 10.0 | 0.00 | 0.00 | 0.13 | 56 | 1009.3 |
| 20260506142103 | 58 | 3 | 3.0 | 6.0 | 0.00 | 0.00 | 0.13 | 58 | 1009.3 |
| 20260506141054 | 58 | 342 | 3.0 | 10.0 | 0.00 | 0.00 | 0.13 | 57 | 1009.3 |
| 20260506140047 | 58 | 26 | 2.0 | 7.0 | 0.00 | 0.00 | 0.13 | 58 | 1009.3 |
| 20260506135040 | 58 | 31 | 2.0 | 6.0 | 0.00 | 0.00 | 0.13 | 58 | 1009.3 |
| 20260506134033 | 58 | 0 | 4.0 | 8.0 | 0.00 | 0.00 | 0.13 | 59 | 1009.2 |
| 20260506133026 | 58 | 356 | 4.0 | 7.0 | 0.00 | 0.00 | 0.13 | 59 | 1009.3 |
| 20260506132010 | 57 | 24 | 3.0 | 8.0 | 0.00 | 0.00 | 0.13 | 60 | 1009.2 |
| 20260506131003 | 57 | 1 | 4.0 | 8.0 | 0.00 | 0.00 | 0.13 | 61 | 1009.1 |
| 20260506130056 | 58 | 4 | 5.0 | 8.0 | 0.00 | 0.00 | 0.13 | 59 | 1009.1 |
| 20260506125049 | 57 | 8 | 2.0 | 6.0 | 0.00 | 0.00 | 0.13 | 63 | 1009.1 |
| 20260506124042 | 56 | 352 | 1.0 | 7.0 | 0.00 | 0.00 | 0.13 | 63 | 1009.1 |
| 20260506123034 | 56 | 13 | 2.0 | 7.0 | 0.00 | 0.00 | 0.13 | 64 | 1009.1 |
| 20260506122027 | 56 | 3 | 5.0 | 9.0 | 0.00 | 0.00 | 0.13 | 65 | 1009.2 |
| 20260506121011 | 56 | 21 | 4.0 | 6.0 | 0.00 | 0.00 | 0.13 | 65 | 1009.0 |
| 20260506120004 | 55 | 349 | 4.0 | 7.0 | 0.00 | 0.00 | 0.13 | 67 | 1009.0 |
| 20260506115058 | 55 | 38 | 2.0 | 6.0 | 0.00 | 0.00 | 0.13 | 70 | 1008.9 |
| 20260506114051 | 55 | 27 | 2.0 | 7.0 | 0.00 | 0.00 | 0.13 | 69 | 1008.9 |
| 20260506113044 | 56 | 10 | 3.0 | 6.0 | 0.00 | 0.00 | 0.13 | 68 | 1008.9 |
| 20260506112037 | 56 | 343 | 3.0 | 8.0 | 0.00 | 0.00 | 0.13 | 68 | 1008.9 |
| 20260506111012 | 58 | 346 | 5.0 | 9.0 | 0.00 | 0.00 | 0.13 | 68 | 1008.9 |
| 20260506110005 | 56 | 337 | 3.0 | 7.0 | 0.00 | 0.00 | 0.13 | 69 | 1008.9 |
| 20260506105059 | 55 | 351 | 4.0 | 8.0 | 0.00 | 0.00 | 0.13 | 74 | 1009.0 |
| 20260506104051 | 54 | 329 | 2.0 | 9.0 | 0.00 | 0.00 | 0.13 | 74 | 1009.1 |
| 20260506103044 | 54 | 339 | 1.0 | 7.0 | 0.00 | 0.00 | 0.13 | 77 | 1009.1 |
| 20260506102038 | 54 | 337 | 4.0 | 6.0 | 0.00 | 0.00 | 0.13 | 77 | 1009.0 |
| 20260506101031 | 54 | 324 | 3.0 | 6.0 | 0.00 | 0.00 | 0.13 | 96 | 1009.0 |
| 20260506100007 | 53 | 345 | 4.0 | 7.0 | 0.00 | 0.00 | 0.13 | 96 | 1009.0 |
| 20260506095100 | 53 | 352 | 5.0 | 7.0 | 0.00 | 0.00 | 0.13 | 96 | 1008.8 |
| 20260506094053 | 52 | 331 | 4.0 | 4.0 | 0.00 | 0.00 | 0.13 | 97 | 1008.8 |
| 20260506093046 | 52 | 338 | 4.0 | 4.0 | 0.00 | 0.00 | 0.13 | 96 | 1008.8 |
| 20260506092039 | 52 | 343 | 2.0 | 7.0 | 0.00 | 0.00 | 0.13 | 97 | 1008.7 |
| 20260506091032 | 51 | 328 | 2.0 | 4.0 | 0.00 | 0.00 | 0.13 | 97 | 1008.7 |
| 20260506090025 | 51 | 336 | 0.0 | 3.0 | 0.00 | 0.00 | 0.13 | 97 | 1008.6 |
| 20260506085015 | 51 | 335 | 2.0 | 7.0 | 0.00 | 0.00 | 0.13 | 97 | 1008.6 |
| 20260506084005 | 51 | 341 | 2.0 | 3.0 | 0.00 | 0.00 | 0.13 | 97 | 1008.6 |
| 20260506083059 | 50 | 332 | 0.0 | 6.0 | 0.00 | 0.00 | 0.13 | 97 | 1008.5 |
| 20260506082052 | 50 | 334 | 0.0 | 7.0 | 0.00 | 0.00 | 0.13 | 97 | 1008.4 |
| 20260506081045 | 50 | 339 | 1.0 | 6.0 | 0.00 | 0.00 | 0.13 | 97 | 1008.4 |
| 20260506073003 | 48 | 347 | 4.0 | 9.0 | 0.00 | 0.00 | 0.13 | 97 | 1008.2 |
| 20260506072056 | 48 | 358 | 6.0 | 9.0 | 0.00 | 0.00 | 0.13 | 97 | 1008.2 |
| 20260506071049 | 48 | 348 | 4.0 | 4.0 | 0.00 | 0.00 | 0.13 | 97 | 1008.1 |
| 20260506062054 | 47 | 345 | 1.0 | 7.0 | 0.00 | 0.00 | 0.13 | 97 | 1007.9 |
| 20260506061047 | 47 | 3 | 2.0 | 6.0 | 0.00 | 0.00 | 0.13 | 97 | 1007.9 |
| 20260506051052 | 47 | 358 | 2.0 | 4.0 | 0.00 | 0.00 | 0.12 | 97 | 1007.7 |
| 20260506045038 | 47 | 4 | 4.0 | 6.0 | 0.00 | 0.00 | 0.12 | 97 | 1007.6 |
| 20260506044030 | 47 | 358 | 2.0 | 2.0 | 0.00 | 0.00 | 0.12 | 97 | 1007.7 |
| 20260506043023 | 47 | 348 | 1.0 | 3.0 | 0.00 | 0.00 | 0.12 | 97 | 1007.7 |
| 20260506042010 | 47 | 340 | 1.0 | 4.0 | 0.00 | 0.00 | 0.12 | 97 | 1007.7 |
| 20260506041003 | 47 | 341 | 0.0 | 6.0 | 0.00 | 0.00 | 0.12 | 96 | 1007.7 |
| 20260506040057 | 47 | 340 | 2.0 | 7.0 | 0.00 | 0.00 | 0.12 | 97 | 1007.6 |
| 20260506035050 | 47 | 330 | 1.0 | 2.0 | 0.00 | 0.00 | 0.12 | 97 | 1007.7 |
| 20260506034042 | 47 | 337 | 0.0 | 6.0 | 0.05 | 0.00 | 0.12 | 97 | 1007.8 |
| 20260506033035 | 47 | 347 | 0.0 | 4.0 | 0.00 | 0.00 | 0.11 | 96 | 1007.8 |
| 20260506032028 | 47 | 357 | 2.0 | 6.0 | 0.00 | 0.00 | 0.11 | 97 | 1007.8 |
| 20260506031012 | 47 | 359 | 1.0 | 4.0 | 0.00 | 0.00 | 0.11 | 97 | 1007.9 |
| 20260506030004 | 47 | 4 | 1.0 | 4.0 | 0.00 | 0.00 | 0.11 | 97 | 1007.9 |
| 20260506025057 | 47 | 11 | 2.0 | 4.0 | 0.07 | 0.00 | 0.11 | 97 | 1008.0 |
| 20260506024050 | 47 | 17 | 2.0 | 4.0 | 0.00 | 0.00 | 0.10 | 97 | 1008.1 |
| 20260506023044 | 47 | 5 | 3.0 | 7.0 | 0.00 | 0.00 | 0.10 | 96 | 1008.1 |
| 20260506022037 | 47 | 352 | 4.0 | 6.0 | 0.00 | 0.00 | 0.10 | 96 | 1008.1 |
| 20260506021030 | 47 | 355 | 1.0 | 3.0 | 0.07 | 0.00 | 0.10 | 96 | 1008.0 |
| 20260506020021 | 48 | 354 | 2.0 | 4.0 | 0.00 | 0.00 | 0.09 | 96 | 1008.1 |
| 20260506015003 | 48 | 346 | 0.0 | 6.0 | 0.00 | 0.00 | 0.09 | 96 | 1008.1 |
| 20260506014057 | 48 | 357 | 1.0 | 3.0 | 0.00 | 0.00 | 0.09 | 96 | 1008.1 |
| 20260506013050 | 48 | 355 | 1.0 | 3.0 | 0.00 | 0.00 | 0.09 | 97 | 1008.2 |
| 20260506012043 | 48 | 358 | 1.0 | 3.0 | 0.00 | 0.00 | 0.09 | 96 | 1008.2 |
| 20260506011036 | 48 | 354 | 1.0 | 3.0 | 0.00 | 0.00 | 0.09 | 96 | 1008.3 |
| 20260506010030 | 48 | 356 | 1.0 | 2.0 | 0.00 | 0.00 | 0.09 | 96 | 1008.2 |
| 20260506005020 | 49 | 15 | 0.0 | 2.0 | 0.00 | 0.00 | 0.09 | 96 | 1008.4 |
| 20260506004006 | 49 | 353 | 2.0 | 3.0 | 0.00 | 0.00 | 0.09 | 96 | 1008.5 |
| 20260506003100 | 49 | 352 | 0.0 | 3.0 | 0.05 | 0.00 | 0.09 | 96 | 1008.5 |
| 20260506002053 | 49 | 6 | 0.0 | 2.0 | 0.00 | 0.00 | 0.08 | 96 | 1008.5 |
| 20260506001046 | 49 | 351 | 0.0 | 2.0 | 0.00 | 0.00 | 0.08 | 96 | 1008.6 |
| 20260506000040 | 49 | 1 | 0.0 | 1.0 | 0.00 | 0.00 | 0.08 | 96 | 1008.6 |
| 20260505235033 | 49 | 1 | 0.0 | 2.0 | 0.07 | 0.00 | 0.08 | 96 | 1008.7 |
| 20260505234025 | 49 | 350 | 2.0 | 3.0 | 0.00 | 0.00 | 0.07 | 96 | 1008.8 |
| 20260505233009 | 50 | 352 | 1.0 | 2.0 | 0.05 | 0.00 | 0.07 | 96 | 1008.7 |
| 20260505232002 | 49 | 7 | 1.0 | 1.0 | 0.00 | 0.00 | 0.06 | 96 | 1008.8 |
| 20260505231056 | 49 | 2 | 0.0 | 3.0 | 0.07 | 0.00 | 0.06 | 96 | 1008.8 |
| 20260505230049 | 50 | 3 | 1.0 | 4.0 | 0.00 | 0.00 | 0.05 | 96 | 1009.0 |
| 20260505225041 | 50 | 1 | 3.0 | 6.0 | 0.05 | 0.00 | 0.05 | 96 | 1009.0 |
| 20260505224034 | 50 | 1 | 2.0 | 4.0 | 0.07 | 0.00 | 0.04 | 96 | 1008.9 |
| 20260505223027 | 51 | 347 | 1.0 | 1.0 | 0.05 | 0.00 | 0.03 | 96 | 1009.0 |
| 20260505222011 | 51 | 9 | 0.0 | 0.0 | 0.07 | 0.00 | 0.02 | 96 | 1009.0 |
| 20260505221004 | 51 | 9 | 0.0 | 0.0 | 0.05 | 0.00 | 0.01 | 96 | 1009.0 |
| 20260505220057 | 51 | 9 | 0.0 | 0.0 | 0.07 | 0.00 | 0.00 | 96 | 1009.1 |
| 20260505215050 | 51 | 9 | 0.0 | 0.0 | 0.05 | 0.00 | 0.11 | 96 | 1009.2 |
| 20260505214043 | 51 | 9 | 0.0 | 0.0 | 0.07 | 0.00 | 0.10 | 96 | 1009.2 |
| 20260505213036 | 51 | 9 | 0.0 | 0.0 | 0.07 | 0.00 | 0.09 | 96 | 1009.2 |
| 20260505212029 | 51 | 9 | 0.0 | 0.0 | 0.05 | 0.00 | 0.08 | 96 | 1009.2 |
| 20260505211022 | 51 | 9 | 0.0 | 0.0 | 0.00 | 0.00 | 0.07 | 96 | 1009.3 |
| 20260505210012 | 51 | 9 | 0.0 | 1.0 | 0.07 | 0.00 | 0.07 | 96 | 1009.2 |
| 20260505205005 | 51 | 354 | 0.0 | 1.0 | 0.05 | 0.00 | 0.06 | 96 | 1009.3 |
| 20260505204058 | 51 | 356 | 1.0 | 1.0 | 0.05 | 0.00 | 0.06 | 96 | 1009.3 |
| 20260505203051 | 51 | 350 | 1.0 | 2.0 | 0.00 | 0.00 | 0.05 | 96 | 1009.3 |
| 20260505202045 | 51 | 3 | 0.0 | 2.0 | 0.00 | 0.00 | 0.05 | 96 | 1009.3 |
| 20260505201037 | 51 | 347 | 0.0 | 0.0 | 0.07 | 0.00 | 0.05 | 96 | 1009.2 |
| 20260505200030 | 51 | 347 | 0.0 | 0.0 | 0.00 | 0.00 | 0.04 | 96 | 1009.2 |
| 20260505195020 | 51 | 347 | 0.0 | 0.0 | 0.00 | 0.00 | 0.04 | 96 | 1009.2 |